Regional Weather Roundup
Issued by NWS

Home | Current Version | Previous Version | Text Only | Print | Product List | Glossary On
Versions: 1 2 3 4 5 6 7 8 9 10 11 12 13 14 15 16 17 18 19 20 21 22 23 24 25 26 27 28 29 30 31 32 33 34 35 36 37 38 39 40 41 42 43 44 45 46 47 48 49 50
201
ASUS43 KTOP 231108
RWRKS

WEATHER ROUNDUP FOR KANSAS
NATIONAL WEATHER SERVICE GOODLAND KS
500 AM CST TUE JAN 23 2018

NOTE:  "FAIR" INDICATES FEW OR NO CLOUDS BELOW 12,000 FEET WITH NO
SIGNIFICANT WEATHER AND/OR OBSTRUCTIONS TO VISIBILITY.

KSZ001>006-013>018-027>032-041>047-231200-
NORTHWEST KANSAS

CITY           SKY/WX    TMP DP  RH WIND       PRES   REMARKS
GOODLAND       PTCLDY    19  11  70 W16       30.12S WCI   4
HAYS           CLEAR     22  16  78 NW10      30.13R WCI  11
HILL CITY      CLEAR     22  14  71 NW10      30.14R WCI  11
RUSSELL        CLEAR     23  17  78 NW13      30.10R WCI  11
$$

KSZ061>065-074>080-084>089-231200-
SOUTHWEST KANSAS

CITY           SKY/WX    TMP DP  RH WIND       PRES   REMARKS
DODGE CITY     CLEAR     25  13  60 NW15      30.14R WCI  13
ELKHART        CLEAR     23  11  60 W10       30.17S WCI  13
GARDEN CITY    CLEAR     20  11  68 NW13      30.15F WCI   7
GREAT BEND     CLEAR     24  18  77 NW12      30.13R WCI  13
LIBERAL        CLEAR     17   9  70 W12       30.19R WCI   4
PRATT          CLEAR     23  15  72 NW10      30.13R WCI  12
$$

KSZ066>073-081>083-090>101-231200-
SOUTHEAST KANSAS

CITY           SKY/WX    TMP DP  RH WIND       PRES   REMARKS
COFFEYVILLE    CLOUDY    33  25  72 NW17      30.11R WCI  22
HUTCHINSON     CLEAR     28  20  71 NW15      30.10R WCI  16
MEDICINE LODGE   N/A     30  17  58 NW9       30.14R
NEWTON         CLEAR     25  21  85 NW12      30.09S WCI  14
PARSONS        CLOUDY    32  26  78 NW14      30.11R WCI  22
WICHITA INTL   CLEAR     26  20  77 NW10      30.10R WCI  16
WICHITA JABRA  CLEAR     24  20  84 NW8       30.09R
WICHITA MCCONL CLEAR     28  19  71 N10       30.09R WCI  18
WINFIELD       CLEAR     23  19  85 NW8       30.12R
$$

KSZ007>012-019>026-033>040-048>060-102>105-231200-
NORTHEAST KANSAS

CITY           SKY/WX    TMP DP  RH WIND       PRES   REMARKS
CONCORDIA      CLEAR     19  16  88 N7        30.10R
EMPORIA        MOCLDY    24  20  84 NW13      30.08R WCI  12
LAWRENCE       CLOUDY    29  25  85 W21       30.05R WCI  16
MANHATTAN      CLOUDY    28  22  78 NW6       30.10R
MARYSVILLE     CLOUDY    27  23  86 N16       30.08R WCI  14
OLATHE IND     CLOUDY    28  25  88 NW16      30.03R WCI  16
OLATHE EXE     CLOUDY    28  24  85 NW12G28   30.01R WCI  18
SALINA         CLEAR     26  21  81 NW9       30.12R
TOPEKA BILLARD CLOUDY    28  24  85 NW14      30.08R WCI  17
TOPEKA FORBES  CLOUDY    28  24  85 NW18      30.06R WCI  15
$$




USA.gov is the U.S. government's official web portal to all federal, state and local government web resources and services.